Temperature
17 17 18 18 18 18 19 21 22 21 20 20 19 19 18 16 16 14 12 12 12 12 12 13 13 13 13 13 13 13 14 14 13 14 14 14 14 14 14 14 14 14 15 15 15 15 15 15 15
17 17 18 18 18 19 20 21 20 20 19 19 19 19 18 15 14 13 12 12 12 12 12 12 13 13 13 13 13 13 13 13 13 13 14 14 14 14 14 14 14 14 14 14 14 14 14 14 14
17 17 18 18 19 19 20 20 19 19 18 18 18 17 16 14 13 12 12 12 12 12 12 12 12 13 13 13 13 13 13 13 13 13 13 13 13 13 13 13 14 14 14 14 14 14 14 14 14
16 17 19 18 19 19 20 20 19 18 18 18 18 16 13 12 12 12 12 12 12 11 12 12 12 12 12 12 13 13 13 13 13 13 13 13 13 13 13 13 13 13 13 14 14 14 14 14 14
17 18 18 18 18 19 20 20 19 19 18 18 17 15 12 11 11 12 11 11 11 11 12 12 12 12 12 12 12 12 13 13 13 13 13 13 13 13 13 13 13 13 13 13 13 13 13 14 14
17 18 17 17 18 19 19 19 19 18 17 17 17 15 12 11 11 11 11 11 11 11 11 11 11 11 12 12 12 12 12 12 12 12 12 13 12 12 12 12 12 12 12 13 13 13 13 13 13
17 17 17 18 18 18 18 19 18 18 17 16 16 15 11 11 11 11 11 11 11 11 11 11 11 11 11 11 12 12 12 12 12 12 12 12 12 12 12 12 12 12 12 12 12 12 13 13 13
16 17 17 18 18 18 18 18 17 17 15 15 15 14 11 10 10 10 11 11 11 11 11 11 11 11 11 11 11 11 11 11 11 11 12 12 12 11 11 12 12 12 12 12 12 12 12 12 12
16 16 16 17 17 17 17 16 16 15 14 13 13 12 11 11 10 10 10 10 10 10 10 10 10 10 11 11 11 11 11 11 11 11 11 11 11 11 11 11 11 11 11 11 11 11 12 11 11
16 14 15 17 17 16 16 16 15 15 13 12 12 11 11 10 10 10 10 9 9 10 10 10 10 10 10 10 10 10 11 11 11 10 10 11 10 10 10 10 11 11 11 11 11 11 11 11 11
15 14 15 16 16 15 15 15 14 14 13 13 12 11 10 10 9 9 9 9 9 9 9 9 9 10 10 10 10 10 10 10 10 10 10 10 10 10 10 10 10 10 10 10 10 10 10 10 10
15 14 15 14 14 14 14 14 13 13 12 12 12 11 10 9 9 9 9 8 9 9 9 9 9 9 9 10 10 9 9 9 10 9 9 10 10 10 9 10 10 10 10 10 10 10 9 10 10
14 13 13 13 13 13 13 13 12 11 11 11 11 10 9 9 9 8 8 8 8 8 8 8 8 9 9 9 9 9 9 9 9 9 9 9 9 9 9 9 9 9 9 9 9 9 9 9 9
14 13 13 13 12 12 12 12 11 11 10 10 10 9 9 9 9 8 8 8 8 8 8 8 8 8 8 8 8 8 8 8 8 8 8 8 8 8 8 8 8 8 8 8 8 8 8 8 8
13 12 12 12 12 12 12 11 11 10 10 10 10 9 9 9 8 8 8 8 7 7 7 8 8 8 8 8 8 8 8 8 8 8 8 8 8 8 8 8 8 8 8 8 8 8 7 7 8
13 12 11 12 12 12 11 10 10 10 10 10 9 9 9 8 8 8 7 7 7 7 7 7 7 7 7 7 7 7 7 7 7 7 7 7 7 7 7 7 7 7 7 7 7 7 7 7 7
12 11 12 12 12 12 11 10 10 10 10 10 9 9 9 8 8 7 7 7 7 7 7 7 7 6 6 6 6 6 6 6 6 6 6 6 6 6 6 6 6 6 6 6 6 6 6 6 6
11 12 12 11 11 11 10 10 9 10 10 10 9 9 8 8 7 7 7 7 6 6 6 6 6 6 6 6 6 6 6 5 5 5 5 5 5 5 5 5 5 5 6 6 6 6 6 6 6
12 12 11 11 11 10 10 10 10 10 9 9 9 9 8 8 7 7 6 6 6 6 6 6 5 5 5 5 5 5 5 5 5 5 5 5 5 5 5 4 5 5 5 5 5 5 5 5 5
11 11 10 10 11 10 9 9 10 9 9 9 9 8 8 7 7 6 6 6 6 5 5 5 5 5 5 5 5 4 4 4 4 4 4 4 4 4 4 4 4 4 4 4 4 4 4 4 4
10 10 10 9 9 10 9 8 9 9 9 9 8 8 7 6 6 6 5 5 5 5 5 5 5 4 4 4 4 4 4 4 3 3 4 3 3 3 3 3 3 3 3 3 3 3 3 3 3
9 10 10 9 8 7 8 7 8 8 8 8 8 7 7 6 6 5 5 5 4 4 4 4 4 4 4 4 4 4 3 3 3 3 3 3 3 3 3 3 3 3 3 3 3 2 3 3 3
8 9 9 9 8 7 8 7 7 8 7 7 7 7 6 6 5 5 5 4 4 4 4 4 4 4 3 3 3 3 3 3 3 2 2 2 2 2 2 2 2 2 2 2 2 2 2 2 2
8 8 8 8 7 6 7 7 7 7 7 7 7 7 6 5 5 4 4 4 3 3 3 3 3 3 3 3 3 3 2 2 2 2 2 2 2 2 2 2 2 2 1 2 1 2 2 2 2
8 6 6 6 6 6 7 7 7 7 7 7 6 6 6 5 5 4 4 3 3 3 3 3 3 2 2 2 2 2 2 2 2 2 2 1 1 2 1 1 1 1 1 1 1 1 1 1 1
6 7 6 6 6 7 6 6 6 7 7 7 6 6 5 5 4 4 3 3 3 2 2 2 2 2 2 2 2 1 1 1 1 1 1 1 1 1 1 1 1 0 0 1 1 1 1 1 1
6 6 7 6 5 5 6 7 6 6 6 6 5 5 5 5 4 3 3 3 2 2 2 2 1 2 1 1 1 1 1 1 1 1 1 0 0 0 0 0 -0 -0 -0 -0 -0 0 0 0 0
6 6 5 5 5 6 7 7 6 5 5 5 5 4 4 4 4 3 2 2 2 2 1 1 1 1 1 1 1 0 0 0 0 0 0 -0 -0 -0 -0 -0 -0 -0 -0 -1 -1 -1 -0 -0 -0
5 5 5 5 5 5 5 6 6 6 5 5 4 4 4 3 3 2 2 1 1 1 1 0 1 0 1 0 0 0 0 0 -0 -0 -1 -1 -1 -1 -1 -1 -1 -1 -1 -1 -1 -1 -1 -1 -1
5 5 5 4 4 4 4 5 6 5 5 4 4 4 4 3 3 2 2 1 0 0 0 0 0 0 0 -0 -0 -0 -0 -0 -1 -1 -1 -1 -1 -1 -1 -1 -1 -1 -1 -1 -1 -1 -1 -1 -1
Wind_Speed
15 13 7 3 3 4 5 2 3 5 5 6 7 6 6 7 6 7 3 5 6 7 9 9 10 10 11 11 11 11 10 10 10 10 10 11 11 11 12 12 12 12 11 11 11 11 11 11 10
11 8 4 3 4 4 3 2 4 5 6 5 5 5 5 6 7 6 4 5 6 8 9 8 10 10 11 11 12 12 11 11 10 10 10 10 10 11 11 11 12 12 11 11 11 11 11 11 10
9 7 4 3 3 3 1 4 8 7 7 4 4 5 5 5 6 4 4 4 6 8 9 9 9 10 11 11 12 12 11 10 10 10 9 9 9 10 10 10 11 11 11 11 11 11 11 11 10
4 3 4 3 5 1 1 5 7 7 5 3 4 6 5 6 4 4 4 4 6 8 10 9 9 9 10 10 11 11 11 10 10 9 9 9 9 9 9 9 10 10 11 11 11 11 10 10 9
3 3 4 5 5 1 3 5 5 4 4 2 3 4 5 6 7 6 5 5 6 7 9 8 9 9 9 9 9 10 10 10 10 9 8 8 8 8 8 8 9 9 9 9 10 10 10 9 9
3 3 4 5 4 2 2 3 3 4 3 2 3 4 5 6 7 6 5 6 7 7 8 8 8 9 9 8 8 9 9 9 9 9 9 8 8 7 8 8 8 8 8 8 8 8 9 8 8
3 3 5 5 3 2 2 2 2 3 3 3 2 4 5 6 6 5 4 6 7 8 8 7 7 8 8 8 8 8 8 8 8 9 8 8 8 7 7 7 7 7 7 7 7 7 8 7 8
3 3 4 5 4 2 3 3 4 4 4 5 5 3 4 5 5 4 5 6 7 7 7 7 7 7 7 7 7 7 7 8 8 8 8 7 7 8 7 6 7 7 7 7 7 7 7 7 7
3 3 4 4 2 1 4 3 3 4 5 4 5 6 6 8 6 5 4 5 5 6 5 7 7 8 7 6 5 5 6 7 7 7 7 6 6 6 6 6 6 6 6 6 6 6 5 6 6
2 2 2 3 3 2 3 3 2 3 4 3 4 6 7 7 5 4 4 4 4 4 5 5 7 8 8 6 6 5 5 6 6 6 6 5 6 6 6 6 6 6 5 5 5 6 5 5 5
1 1 1 4 6 4 3 3 1 2 2 2 4 6 5 5 5 4 3 4 3 3 4 4 5 6 7 6 6 5 5 5 6 6 6 6 6 6 6 5 6 5 5 5 5 5 5 5 5
2 1 2 2 4 2 1 2 1 2 2 3 4 5 5 4 4 3 3 3 3 3 3 3 4 5 6 6 5 5 6 5 6 6 7 6 5 5 5 5 5 4 5 5 5 4 5 6 6
2 1 1 2 3 2 1 1 0 1 2 2 4 5 4 4 3 3 3 3 3 3 3 3 4 4 5 5 5 5 5 5 6 6 8 8 5 4 4 4 5 5 5 4 4 4 4 4 4
2 2 1 1 0 0 1 1 1 2 2 2 3 4 4 3 3 3 3 2 3 3 3 3 3 4 5 4 4 4 4 4 5 6 7 8 7 6 5 4 5 5 6 5 4 4 3 3 3
2 1 1 3 4 3 2 3 4 4 3 3 3 3 4 4 3 3 2 2 2 2 3 3 2 4 4 4 4 4 5 5 5 5 7 8 8 7 6 4 4 5 7 6 4 4 3 3 3
3 3 3 4 5 3 3 5 3 4 4 4 3 3 3 3 3 2 2 2 2 2 2 3 2 3 3 3 3 4 5 5 5 5 6 7 7 7 6 4 4 6 6 5 3 2 2 2 3
5 4 4 3 4 3 4 4 3 3 4 4 4 4 4 3 3 3 2 2 2 2 2 2 2 2 2 2 2 3 3 4 4 5 5 6 7 7 6 4 4 6 5 4 4 3 2 2 3
3 4 4 3 3 3 6 4 3 4 5 4 4 3 3 3 3 3 3 2 2 2 2 2 2 2 1 1 1 2 2 3 4 4 5 6 6 6 6 4 5 5 3 3 3 3 2 2 2
4 4 4 2 1 3 6 6 5 5 5 4 3 3 3 2 2 3 3 3 2 2 2 2 2 1 1 1 1 1 1 2 2 3 5 5 5 6 5 4 4 4 3 3 3 3 2 2 3
5 5 3 2 1 4 5 8 6 6 6 4 4 3 3 2 2 2 3 3 2 1 2 1 1 1 1 1 1 1 1 1 1 2 4 5 5 5 5 4 3 3 2 3 3 3 2 2 2
4 4 4 4 4 4 4 6 6 5 5 5 4 3 3 3 3 2 2 2 2 1 1 1 1 1 1 1 1 1 1 1 1 1 1 3 4 4 5 4 3 3 2 2 2 2 3 2 3
4 3 3 3 3 3 3 5 6 5 5 5 5 3 3 2 2 2 2 2 2 1 1 1 1 1 1 1 1 0 1 1 1 1 1 2 3 4 4 4 4 3 2 2 2 2 2 2 2
1 3 4 4 4 4 5 4 5 4 5 6 5 3 3 3 3 2 2 2 2 2 2 1 1 1 1 1 1 1 1 1 1 1 1 1 1 3 4 4 4 3 2 2 2 2 2 2 2
0 1 2 3 2 4 6 5 4 3 4 4 4 4 4 3 3 3 2 2 2 2 2 1 1 1 1 1 1 1 1 1 1 1 1 1 1 1 3 4 3 3 2 2 2 2 2 2 2
1 1 1 1 2 5 3 4 4 1 1 2 2 2 3 4 4 3 3 2 2 2 1 1 1 1 1 1 1 1 1 1 1 1 1 1 1 1 1 3 2 3 3 3 2 2 2 2 2
3 2 2 3 4 3 3 5 3 1 2 2 2 0 1 2 3 3 3 2 2 1 1 0 0 0 1 1 1 1 1 1 1 1 1 2 1 1 1 2 2 3 3 3 2 2 2 1 2
2 2 1 1 3 4 5 3 1 0 1 1 2 1 1 2 2 3 2 2 2 2 1 1 1 0 0 0 1 1 1 1 1 1 1 1 1 2 2 2 2 3 3 3 3 2 2 2 2
2 0 1 2 2 4 6 4 3 2 2 1 1 2 1 1 1 2 2 2 2 2 1 1 0 0 0 0 1 1 1 1 1 1 1 1 2 2 2 2 2 2 3 3 3 2 2 2 2
3 2 2 3 3 3 4 3 2 1 1 1 1 1 1 1 1 1 1 1 1 1 1 1 1 1 1 1 0 1 1 1 1 1 1 1 1 2 2 2 2 2 2 2 2 3 2 2 3
3 4 4 3 4 4 3 5 2 4 3 2 2 2 2 1 1 1 1 1 1 1 1 1 1 1 0 0 0 1 1 1 1 1 2 2 2 2 2 2 2 2 2 3 3 3 3 3 3
Wind_Direction
301 277 256 256 246 229 241 234 87 77 57 40 30 38 51 38 33 97 108 46 53 62 67 56 43 45 47 49 49 52 55 57 57 57 54 52 52 52 50 53 59 60 61 61 58 57 55 52 50
295 284 267 244 246 233 226 168 91 75 81 66 39 38 67 70 66 89 68 40 55 64 65 59 48 48 49 48 48 50 54 55 56 56 54 51 52 52 52 52 56 57 57 58 58 57 54 50 46
276 270 258 238 243 250 279 87 96 86 85 85 68 33 42 55 64 68 53 46 60 64 64 62 54 51 52 50 48 47 48 50 50 52 54 52 53 52 52 53 55 56 55 56 56 55 52 48 44
275 244 243 246 246 277 31 91 99 112 94 73 98 87 75 46 51 67 69 57 72 68 66 64 58 53 53 53 49 46 46 46 46 49 52 52 52 52 49 51 55 53 52 53 54 52 49 45 41
250 250 233 233 238 248 57 81 94 106 123 111 99 102 89 74 73 74 66 62 69 69 67 68 60 53 49 51 52 45 42 45 46 47 48 51 49 48 47 53 55 53 51 50 50 48 44 41 37
255 251 235 230 215 172 113 93 99 104 107 103 84 99 101 91 77 66 58 65 69 69 65 68 59 51 47 48 52 50 44 44 45 45 45 44 45 46 46 52 54 51 50 49 47 44 42 38 31
275 256 251 247 224 193 132 104 111 101 94 65 37 86 113 83 75 74 69 71 66 63 59 56 52 49 44 42 47 50 48 47 44 41 39 38 39 41 43 48 51 49 48 46 43 41 37 31 25
297 286 255 248 231 210 110 81 48 49 67 40 28 83 119 103 97 87 77 73 67 59 53 45 44 42 37 38 43 49 51 47 43 38 34 35 36 35 35 44 46 45 46 43 39 36 32 26 18
287 259 250 262 253 158 114 99 58 60 83 58 48 52 94 112 111 95 79 69 64 56 49 40 33 31 28 32 36 38 46 43 39 33 27 28 32 29 30 38 38 40 41 40 34 25 25 21 12
247 241 255 337 0 87 113 105 115 135 109 105 90 87 105 113 111 101 87 71 61 54 47 42 32 26 22 23 23 23 33 37 38 29 20 13 24 26 33 37 34 32 32 33 27 14 12 9 1
218 250 320 1 21 59 85 89 99 176 172 156 144 129 121 119 112 106 96 83 71 63 53 44 36 32 25 21 22 17 27 30 33 29 16 23 36 30 31 31 27 24 27 19 13 7 4 10 6
208 1 7 9 21 46 79 94 21 351 43 53 95 124 127 122 120 112 96 88 80 72 63 51 39 36 30 23 21 24 26 25 29 23 19 26 27 24 17 16 12 11 19 6 357 359 8 11 6
209 203 41 43 44 42 72 131 84 51 54 67 102 116 128 133 126 113 94 91 91 82 68 53 39 39 31 26 19 26 26 19 29 33 26 25 23 17 10 4 7 6 14 2 349 358 11 12 7
119 112 110 107 86 263 182 220 204 164 149 137 135 139 144 142 133 109 97 92 93 89 82 61 52 37 33 27 22 30 26 20 31 33 30 28 24 14 10 3 4 7 1 354 358 1 4 11 13
127 142 203 209 206 194 203 231 213 179 174 173 177 160 153 146 128 117 97 81 77 89 87 66 52 37 36 31 18 28 25 29 30 28 32 32 25 16 11 5 2 357 353 350 1 10 12 3 10
209 210 216 195 187 177 206 240 177 157 175 184 186 173 161 135 126 124 104 90 67 83 85 77 41 42 40 33 21 30 28 27 28 32 32 30 24 15 11 8 0 351 351 352 354 4 12 4 9
208 229 230 198 184 163 219 241 156 157 195 198 196 186 166 150 145 139 121 103 89 88 93 86 69 56 41 29 28 41 33 32 33 36 33 25 23 18 14 6 358 354 355 353 346 2 10 11 7
233 246 250 220 188 234 244 242 199 198 217 211 202 192 178 179 171 145 128 114 93 79 83 80 66 58 45 26 25 47 44 30 35 36 34 30 20 13 14 5 0 359 354 348 355 360 6 8 355
301 280 286 331 17 269 253 253 224 203 220 221 209 201 191 180 143 134 128 120 105 80 75 78 69 49 38 20 7 22 14 9 24 30 33 29 19 10 13 9 1 1 354 343 346 351 3 2 360
290 282 291 309 306 280 269 264 241 207 207 211 213 201 188 174 176 140 131 117 105 96 81 84 70 56 42 24 5 354 347 354 23 26 30 25 15 10 11 14 2 357 350 346 352 349 346 337 352
270 278 286 295 307 265 289 274 231 212 198 203 214 194 178 184 186 155 131 118 113 96 82 50 44 58 60 42 41 17 8 2 13 7 3 10 7 10 8 4 4 360 356 334 334 338 347 324 323
266 315 312 294 282 257 218 277 242 207 198 206 208 201 187 174 171 161 159 141 143 116 79 64 57 50 55 52 35 9 335 328 326 320 325 355 4 6 5 359 1 0 356 338 327 340 329 323 311
334 343 309 275 266 283 241 250 256 199 217 217 207 198 174 164 166 171 166 146 124 108 92 52 62 44 34 22 355 329 330 334 341 339 324 327 357 3 2 357 354 349 341 330 321 322 328 320 307
337 312 290 261 255 264 229 220 260 217 214 196 193 192 181 169 164 161 143 121 104 88 91 70 60 30 25 12 347 342 356 344 343 334 315 308 317 347 352 349 348 340 333 319 307 297 301 300 304
277 103 4 299 238 248 233 223 246 206 65 132 177 198 193 167 161 158 150 153 133 110 98 73 51 12 8 359 347 342 340 328 312 315 309 318 318 321 300 340 334 325 322 317 312 291 281 280 285
234 214 193 242 253 283 259 232 231 96 64 84 105 133 204 159 158 161 163 164 145 127 123 128 274 322 347 351 344 336 345 342 329 329 308 292 287 294 293 325 319 315 316 319 312 291 276 277 276
206 230 301 295 282 274 251 232 264 159 45 127 140 161 247 173 152 157 156 155 156 159 172 184 223 282 334 354 341 337 347 352 330 316 315 298 302 310 322 314 301 306 305 306 300 281 275 276 271
296 196 130 197 248 264 263 239 230 210 243 243 228 238 252 180 154 160 164 168 177 176 170 176 206 287 285 266 281 320 325 322 321 312 310 308 311 322 302 289 294 303 303 299 295 291 284 283 281
186 197 214 234 248 248 276 271 2 95 170 213 271 262 225 218 187 186 158 137 147 152 172 201 209 235 248 223 265 311 316 318 321 311 311 322 314 308 290 287 286 286 286 292 294 289 287 281 288
228 211 185 201 245 238 266 271 6 44 47 32 356 343 346 6 145 142 135 115 120 156 188 194 221 246 243 233 272 286 305 314 318 317 323 331 309 295 294 292 282 290 293 290 289 291 283 275 279
Height
1497 1498 1499 1502 1503 1504 1502 1493 1489 1494 1497 1500 1501 1502 1505 1511 1515 1524 1525 1523 1522 1522 1521 1521 1521 1521 1521 1520 1520 1519 1519 1520 1521 1522 1522 1522 1523 1523 1522 1522 1522 1523 1523 1524 1524 1525 1525 1525 1525
1497 1498 1501 1501 1503 1507 1501 1493 1494 1497 1500 1503 1504 1505 1507 1514 1518 1521 1522 1522 1522 1522 1521 1521 1521 1521 1521 1521 1520 1520 1520 1521 1522 1522 1523 1523 1523 1523 1523 1523 1523 1523 1524 1524 1524 1525 1525 1525 1525
1497 1499 1501 1499 1500 1502 1498 1493 1496 1499 1502 1504 1506 1508 1512 1517 1519 1520 1522 1522 1522 1522 1521 1521 1522 1522 1521 1521 1521 1521 1521 1522 1522 1523 1523 1523 1523 1524 1524 1524 1524 1524 1524 1524 1524 1525 1525 1525 1525
1498 1500 1500 1500 1500 1496 1494 1495 1497 1500 1503 1505 1507 1511 1516 1520 1520 1521 1521 1522 1522 1522 1521 1522 1522 1522 1522 1522 1521 1521 1521 1522 1522 1523 1523 1523 1523 1524 1524 1524 1524 1524 1524 1524 1524 1524 1525 1525 1525
1499 1499 1499 1501 1498 1496 1494 1495 1498 1500 1504 1506 1508 1512 1518 1520 1520 1521 1521 1522 1522 1521 1521 1522 1522 1522 1522 1522 1521 1521 1521 1522 1522 1522 1523 1523 1523 1523 1524 1524 1524 1524 1524 1524 1524 1525 1524 1525 1525
1499 1496 1501 1502 1498 1495 1496 1497 1499 1501 1505 1507 1509 1512 1519 1520 1519 1520 1521 1521 1521 1521 1521 1521 1522 1522 1522 1522 1522 1521 1521 1522 1522 1522 1522 1523 1523 1523 1523 1523 1523 1523 1524 1524 1524 1524 1524 1524 1524
1499 1497 1497 1497 1497 1497 1497 1498 1501 1502 1506 1509 1510 1513 1518 1519 1519 1520 1520 1521 1521 1521 1521 1521 1521 1521 1522 1522 1522 1521 1521 1522 1522 1522 1522 1522 1522 1522 1522 1522 1523 1523 1523 1523 1523 1523 1523 1523 1523
1497 1496 1495 1495 1496 1498 1498 1500 1502 1505 1508 1510 1511 1514 1517 1519 1519 1519 1520 1521 1521 1521 1521 1521 1521 1521 1521 1521 1521 1521 1521 1521 1521 1521 1521 1521 1521 1521 1521 1522 1522 1522 1522 1522 1522 1522 1522 1522 1522
1497 1500 1500 1496 1495 1497 1498 1501 1504 1506 1509 1511 1513 1514 1516 1517 1518 1519 1519 1520 1520 1520 1520 1520 1520 1520 1520 1520 1521 1521 1520 1520 1520 1520 1520 1520 1520 1520 1520 1520 1521 1521 1521 1521 1521 1521 1521 1521 1521
1497 1501 1499 1497 1495 1497 1499 1502 1505 1507 1509 1512 1514 1515 1516 1517 1517 1518 1519 1519 1519 1519 1520 1519 1520 1519 1519 1519 1519 1519 1519 1519 1519 1519 1519 1519 1519 1519 1519 1519 1519 1519 1519 1519 1519 1519 1519 1519 1519
1497 1499 1498 1498 1497 1499 1501 1503 1505 1506 1510 1512 1513 1514 1515 1516 1517 1518 1518 1519 1519 1519 1519 1519 1519 1518 1518 1518 1518 1518 1518 1517 1517 1518 1518 1518 1518 1518 1517 1517 1517 1517 1517 1517 1517 1517 1517 1517 1517
1498 1499 1499 1500 1501 1501 1503 1504 1507 1507 1510 1511 1512 1513 1514 1515 1516 1517 1518 1518 1518 1518 1518 1518 1518 1517 1517 1517 1517 1516 1516 1516 1515 1516 1516 1516 1516 1516 1515 1515 1515 1515 1514 1515 1515 1515 1515 1515 1515
1498 1500 1501 1502 1502 1503 1504 1505 1507 1509 1510 1511 1511 1512 1513 1514 1515 1516 1517 1517 1517 1517 1517 1517 1516 1516 1516 1515 1515 1515 1515 1514 1514 1514 1514 1514 1514 1514 1514 1513 1513 1513 1512 1513 1513 1513 1513 1513 1513
1498 1500 1502 1503 1503 1504 1505 1506 1507 1508 1509 1510 1511 1511 1513 1513 1514 1515 1515 1516 1516 1515 1515 1515 1515 1514 1514 1514 1513 1513 1513 1513 1512 1512 1512 1512 1512 1512 1512 1512 1512 1511 1511 1511 1511 1511 1511 1510 1510
1499 1502 1503 1502 1503 1504 1505 1506 1506 1507 1508 1509 1510 1511 1512 1512 1513 1513 1514 1514 1514 1514 1513 1513 1513 1513 1512 1512 1512 1511 1511 1511 1510 1510 1510 1510 1510 1510 1509 1510 1509 1509 1508 1508 1508 1508 1508 1508 1508
1500 1502 1504 1500 1500 1502 1507 1507 1504 1505 1506 1507 1508 1509 1510 1511 1511 1512 1512 1512 1513 1512 1512 1511 1511 1511 1511 1510 1510 1510 1509 1509 1509 1508 1508 1508 1508 1507 1507 1507 1507 1507 1506 1506 1505 1505 1505 1505 1505
1499 1502 1500 1500 1498 1500 1504 1504 1504 1504 1505 1505 1506 1507 1508 1509 1509 1510 1510 1510 1511 1510 1510 1509 1509 1509 1509 1509 1508 1508 1508 1507 1507 1507 1506 1506 1506 1505 1505 1505 1505 1505 1505 1504 1503 1503 1503 1502 1502
1500 1498 1496 1498 1498 1500 1501 1501 1502 1502 1503 1503 1504 1505 1506 1506 1507 1508 1508 1508 1509 1509 1508 1508 1508 1507 1507 1507 1507 1506 1506 1505 1505 1505 1504 1504 1503 1503 1503 1503 1502 1502 1502 1502 1501 1501 1501 1500 1500
1495 1496 1497 1497 1498 1500 1500 1499 1499 1499 1500 1501 1502 1502 1503 1504 1505 1506 1506 1506 1506 1506 1506 1506 1506 1505 1505 1505 1504 1504 1503 1503 1503 1503 1502 1502 1501 1501 1501 1500 1500 1500 1500 1499 1499 1499 1498 1498 1498
1496 1498 1499 1499 1498 1499 1499 1498 1495 1496 1497 1498 1499 1499 1501 1501 1502 1503 1503 1503 1504 1504 1504 1504 1504 1503 1503 1503 1503 1502 1502 1501 1501 1501 1500 1500 1499 1499 1498 1498 1497 1497 1497 1497 1497 1496 1496 1496 1496
1497 1499 1500 1500 1499 1499 1501 1499 1494 1492 1493 1495 1496 1497 1498 1499 1499 1500 1500 1501 1502 1502 1502 1501 1501 1501 1501 1501 1501 1500 1500 1499 1499 1498 1498 1497 1497 1497 1496 1495 1495 1495 1494 1494 1494 1494 1494 1494 1494
1500 1498 1498 1500 1504 1504 1501 1506 1493 1490 1491 1492 1493 1494 1495 1496 1497 1497 1498 1498 1499 1500 1499 1499 1499 1499 1499 1499 1498 1497 1497 1496 1496 1496 1495 1495 1494 1494 1493 1493 1492 1492 1492 1492 1492 1492 1492 1492 1492
1500 1499 1499 1499 1502 1505 1501 1506 1494 1488 1490 1489 1489 1491 1492 1493 1494 1495 1496 1496 1497 1497 1497 1497 1497 1497 1497 1496 1496 1495 1495 1495 1494 1494 1493 1492 1492 1491 1491 1490 1489 1489 1489 1489 1489 1489 1489 1489 1490
1501 1501 1500 1501 1504 1510 1499 1502 1493 1488 1485 1485 1486 1488 1490 1491 1492 1493 1494 1494 1495 1494 1495 1495 1494 1494 1494 1494 1494 1493 1492 1492 1491 1491 1490 1489 1489 1488 1487 1487 1487 1486 1486 1486 1486 1486 1486 1487 1487
1502 1507 1512 1511 1511 1505 1493 1495 1492 1484 1482 1483 1485 1486 1487 1488 1489 1490 1491 1492 1492 1491 1492 1492 1492 1492 1491 1491 1491 1490 1490 1489 1488 1488 1487 1487 1486 1485 1484 1484 1484 1484 1484 1484 1483 1483 1483 1484 1484
1504 1505 1513 1513 1508 1499 1496 1494 1488 1483 1482 1482 1484 1485 1486 1486 1487 1488 1489 1489 1489 1489 1489 1489 1489 1489 1489 1489 1488 1488 1487 1487 1486 1485 1485 1484 1483 1482 1482 1481 1481 1481 1481 1481 1481 1481 1481 1481 1481
1503 1506 1504 1509 1508 1508 1494 1486 1486 1483 1482 1482 1483 1484 1485 1485 1485 1486 1486 1487 1487 1487 1487 1487 1487 1486 1486 1486 1486 1485 1485 1484 1484 1483 1482 1482 1481 1480 1480 1479 1479 1479 1479 1479 1478 1478 1478 1478 1478
1503 1503 1508 1511 1510 1504 1489 1483 1486 1484 1483 1482 1482 1482 1483 1484 1484 1484 1484 1484 1485 1485 1484 1484 1484 1484 1483 1483 1483 1482 1482 1482 1481 1480 1480 1479 1478 1478 1477 1477 1476 1476 1476 1476 1476 1476 1476 1476 1475
1505 1506 1506 1507 1504 1505 1499 1491 1480 1480 1480 1481 1481 1482 1482 1482 1482 1482 1482 1483 1483 1482 1482 1482 1481 1481 1480 1480 1480 1480 1479 1479 1478 1477 1477 1476 1476 1475 1475 1474 1474 1474 1474 1474 1473 1473 1473 1473 1472
1500 1500 1504 1510 1507 1503 1502 1495 1481 1480 1480 1481 1481 1482 1481 1480 1480 1480 1480 1480 1480 1480 1479 1479 1479 1479 1478 1477 1477 1477 1476 1476 1475 1475 1474 1474 1473 1473 1472 1472 1472 1471 1471 1471 1471 1470 1470 1470 1470